| time (UTC) | temp F | wind direction | speed MPH | gust MPH | rain 1hr in | rain 24hr in | rain mn in | humidity % | barometer mb |
| 20260510152507 | 61 | 192 | 1.0 | 3.0 | 0.00 | 0.13 | 0.00 | 84 | 1014.2 |
| 20260510152011 | 61 | 214 | 1.0 | 3.0 | 0.00 | 0.13 | 0.00 | 85 | 1014.3 |
| 20260510151527 | 61 | 169 | 0.0 | 3.0 | 0.00 | 0.13 | 0.00 | 85 | 1014.2 |
| 20260510151010 | 61 | 181 | 0.0 | 3.0 | 0.00 | 0.13 | 0.00 | 84 | 1014.1 |
| 20260510150510 | 61 | 180 | 1.0 | 2.0 | 0.00 | 0.13 | 0.00 | 84 | 1014.1 |
| 20260510150023 | 61 | 191 | 1.0 | 2.0 | 0.00 | 0.13 | 0.00 | 84 | 1014.2 |
| 20260510145511 | 62 | 162 | 1.0 | 4.0 | 0.00 | 0.13 | 0.00 | 83 | 1014.3 |
| 20260510145010 | 63 | 152 | 1.0 | 4.0 | 0.00 | 0.13 | 0.00 | 82 | 1014.4 |
| 20260510144536 | 63 | 227 | 2.0 | 3.0 | 0.00 | 0.13 | 0.00 | 80 | 1014.4 |
| 20260510144007 | 63 | 162 | 0.0 | 2.0 | 0.00 | 0.13 | 0.00 | 83 | 1014.3 |
| 20260510143507 | 63 | 195 | 0.0 | 2.0 | 0.00 | 0.13 | 0.00 | 83 | 1014.0 |
| 20260510143033 | 62 | 162 | 1.0 | 2.0 | 0.00 | 0.13 | 0.00 | 84 | 1013.8 |
| 20260510142513 | 61 | 186 | 0.0 | 2.0 | 0.00 | 0.13 | 0.00 | 85 | 1013.6 |
| 20260510142007 | 61 | 173 | 0.0 | 2.0 | 0.00 | 0.13 | 0.00 | 87 | 1013.7 |
| 20260510141521 | 60 | 165 | 0.0 | 2.0 | 0.00 | 0.13 | 0.00 | 87 | 1013.8 |
| 20260510141008 | 60 | 150 | 0.0 | 2.0 | 0.00 | 0.13 | 0.00 | 87 | 1013.8 |
| 20260510140510 | 60 | 172 | 0.0 | 2.0 | 0.00 | 0.13 | 0.00 | 86 | 1013.8 |
| 20260510140026 | 60 | 160 | 0.0 | 2.0 | 0.00 | 0.13 | 0.00 | 87 | 1013.8 |
| 20260510135510 | 60 | 193 | 0.0 | 2.0 | 0.00 | 0.13 | 0.00 | 88 | 1013.7 |
| 20260510135010 | 60 | 166 | 0.0 | 3.0 | 0.00 | 0.13 | 0.00 | 87 | 1013.6 |
| 20260510134526 | 59 | 89 | 0.0 | 3.0 | 0.00 | 0.13 | 0.00 | 88 | 1013.4 |
| 20260510134005 | 59 | 6 | 1.0 | 3.0 | 0.00 | 0.13 | 0.00 | 89 | 1013.3 |
| 20260510133506 | 59 | 179 | 0.0 | 2.0 | 0.00 | 0.13 | 0.00 | 89 | 1013.4 |
| 20260510133016 | 59 | 174 | 0.0 | 2.0 | 0.00 | 0.13 | 0.00 | 89 | 1013.4 |
| 20260510132507 | 58 | 172 | 0.0 | 2.0 | 0.00 | 0.13 | 0.00 | 90 | 1013.3 |
| 20260510132009 | 58 | 192 | 0.0 | 2.0 | 0.00 | 0.13 | 0.00 | 90 | 1013.4 |
| 20260510131523 | 58 | 186 | 0.0 | 2.0 | 0.00 | 0.13 | 0.00 | 90 | 1013.4 |
| 20260510131003 | 58 | 153 | 0.0 | 2.0 | 0.00 | 0.13 | 0.00 | 89 | 1013.7 |
| 20260510130503 | 58 | 152 | 0.0 | 2.0 | 0.00 | 0.13 | 0.00 | 90 | 1013.6 |
| 20260510130004 | 58 | 148 | 0.0 | 2.0 | 0.00 | 0.13 | 0.00 | 91 | 1013.5 |
| 20260510125504 | 58 | 218 | 0.0 | 2.0 | 0.00 | 0.13 | 0.00 | 91 | 1013.4 |
| 20260510125004 | 58 | 191 | 0.0 | 2.0 | 0.00 | 0.13 | 0.00 | 91 | 1013.6 |
| 20260510124507 | 58 | 187 | 0.0 | 2.0 | 0.00 | 0.13 | 0.00 | 91 | 1013.5 |
| 20260510124003 | 57 | 263 | 0.0 | 2.0 | 0.00 | 0.13 | 0.00 | 92 | 1013.4 |
| 20260510123505 | 57 | 344 | 0.0 | 2.0 | 0.00 | 0.13 | 0.00 | 93 | 1013.4 |
| 20260510123024 | 57 | 344 | 0.0 | 2.0 | 0.00 | 0.13 | 0.00 | 93 | 1013.4 |
| 20260510122509 | 56 | 344 | 0.0 | 2.0 | 0.00 | 0.13 | 0.00 | 93 | 1013.4 |
| 20260510122012 | 56 | 352 | 0.0 | 2.0 | 0.00 | 0.13 | 0.00 | 93 | 1013.4 |
| 20260510121521 | 55 | 1 | 0.0 | 2.0 | 0.00 | 0.13 | 0.00 | 92 | 1013.5 |
| 20260510121007 | 55 | 293 | 0.0 | 2.0 | 0.00 | 0.13 | 0.00 | 93 | 1013.5 |
| 20260510120508 | 55 | 304 | 0.0 | 2.0 | 0.00 | 0.13 | 0.00 | 94 | 1013.6 |
| 20260510120023 | 55 | 63 | 0.0 | 2.0 | 0.00 | 0.13 | 0.00 | 94 | 1013.7 |
| 20260510115505 | 55 | 360 | 0.0 | 2.0 | 0.00 | 0.13 | 0.00 | 94 | 1013.8 |
| 20260510115007 | 55 | 335 | 0.0 | 2.0 | 0.00 | 0.13 | 0.00 | 95 | 1013.7 |
| 20260510114506 | 55 | 333 | 0.0 | 2.0 | 0.00 | 0.13 | 0.00 | 95 | 1013.7 |
| 20260510114005 | 55 | 310 | 0.0 | 2.0 | 0.00 | 0.13 | 0.00 | 96 | 1013.7 |
| 20260510113505 | 54 | 309 | 0.0 | 2.0 | 0.00 | 0.13 | 0.00 | 95 | 1013.7 |
| 20260510113017 | 54 | 311 | 0.0 | 2.0 | 0.00 | 0.13 | 0.00 | 96 | 1013.6 |
| 20260510112505 | 54 | 311 | 0.0 | 2.0 | 0.00 | 0.14 | 0.00 | 96 | 1013.7 |
| 20260510112006 | 54 | 311 | 0.0 | 2.0 | 0.00 | 0.14 | 0.00 | 95 | 1013.7 |
| 20260510111514 | 54 | 311 | 0.0 | 2.0 | 0.00 | 0.14 | 0.00 | 96 | 1013.6 |
| 20260510111006 | 54 | 298 | 0.0 | 2.0 | 0.00 | 0.14 | 0.00 | 96 | 1013.7 |
| 20260510110511 | 54 | 298 | 0.0 | 2.0 | 0.00 | 0.14 | 0.00 | 96 | 1013.5 |
| 20260510110031 | 54 | 298 | 0.0 | 1.0 | 0.00 | 0.14 | 0.00 | 96 | 1013.5 |
| 20260510105509 | 54 | 298 | 0.0 | 2.0 | 0.00 | 0.14 | 0.00 | 96 | 1013.3 |
| 20260510105008 | 54 | 298 | 0.0 | 2.0 | 0.00 | 0.14 | 0.00 | 96 | 1013.4 |
| 20260510104524 | 54 | 298 | 0.0 | 0.0 | 0.00 | 0.14 | 0.00 | 96 | 1013.3 |
| 20260510104002 | 53 | 298 | 0.0 | 2.0 | 0.00 | 0.14 | 0.00 | 96 | 1013.3 |
| 20260510103503 | 53 | 298 | 0.0 | 2.0 | 0.00 | 0.14 | 0.00 | 96 | 1013.3 |
| 20260510103007 | 53 | 298 | 0.0 | 2.0 | 0.00 | 0.14 | 0.00 | 96 | 1013.3 |
| 20260510102509 | 53 | 298 | 0.0 | 1.0 | 0.00 | 0.14 | 0.00 | 96 | 1013.2 |
| 20260510102005 | 53 | 298 | 0.0 | 2.0 | 0.00 | 0.14 | 0.00 | 96 | 1013.1 |
| 20260510101511 | 53 | 298 | 0.0 | 2.0 | 0.00 | 0.14 | 0.00 | 96 | 1013.1 |
| 20260510101006 | 53 | 298 | 0.0 | 2.0 | 0.00 | 0.14 | 0.00 | 96 | 1013.1 |
| 20260510100505 | 53 | 298 | 0.0 | 2.0 | 0.00 | 0.14 | 0.00 | 96 | 1013.1 |
| 20260510100016 | 53 | 298 | 0.0 | 1.0 | 0.00 | 0.14 | 0.00 | 96 | 1013.2 |
| 20260510095508 | 53 | 298 | 0.0 | 1.0 | 0.00 | 0.14 | 0.00 | 96 | 1013.3 |
| 20260510095007 | 53 | 298 | 0.0 | 0.0 | 0.00 | 0.14 | 0.00 | 96 | 1013.1 |
| 20260510094539 | 53 | 298 | 0.0 | 0.0 | 0.00 | 0.14 | 0.00 | 96 | 1012.9 |
| 20260510094010 | 53 | 298 | 0.0 | 2.0 | 0.00 | 0.14 | 0.00 | 96 | 1012.9 |
| 20260510093511 | 53 | 298 | 0.0 | 2.0 | 0.00 | 0.14 | 0.00 | 96 | 1012.8 |
| 20260510093023 | 53 | 298 | 0.0 | 2.0 | 0.00 | 0.14 | 0.00 | 96 | 1012.7 |
| 20260510092514 | 53 | 298 | 0.0 | 2.0 | 0.00 | 0.14 | 0.00 | 96 | 1012.7 |
| 20260510092006 | 53 | 319 | 0.0 | 2.0 | 0.00 | 0.14 | 0.00 | 96 | 1012.6 |
| 20260510091517 | 53 | 319 | 0.0 | 2.0 | 0.00 | 0.14 | 0.00 | 96 | 1012.7 |
| 20260510091004 | 53 | 319 | 0.0 | 2.0 | 0.00 | 0.14 | 0.00 | 96 | 1012.7 |
| 20260510090505 | 53 | 265 | 0.0 | 2.0 | 0.00 | 0.14 | 0.00 | 96 | 1012.6 |
| 20260510090015 | 53 | 265 | 0.0 | 2.0 | 0.00 | 0.14 | 0.00 | 96 | 1012.6 |
| 20260510085507 | 53 | 337 | 0.0 | 2.0 | 0.00 | 0.14 | 0.00 | 96 | 1012.5 |
| 20260510085009 | 53 | 352 | 0.0 | 2.0 | 0.00 | 0.14 | 0.00 | 96 | 1012.5 |
| 20260510084521 | 53 | 352 | 0.0 | 2.0 | 0.00 | 0.14 | 0.00 | 96 | 1012.5 |
| 20260510084007 | 53 | 350 | 0.0 | 2.0 | 0.00 | 0.14 | 0.00 | 96 | 1012.6 |
| 20260510083509 | 53 | 350 | 0.0 | 2.0 | 0.00 | 0.14 | 0.00 | 95 | 1012.5 |
| 20260510083021 | 53 | 350 | 0.0 | 2.0 | 0.00 | 0.14 | 0.00 | 96 | 1012.5 |
| 20260510082509 | 53 | 350 | 0.0 | 2.0 | 0.00 | 0.14 | 0.00 | 96 | 1012.5 |
| 20260510082011 | 53 | 350 | 0.0 | 0.0 | 0.00 | 0.14 | 0.00 | 95 | 1012.5 |
| 20260510081525 | 53 | 350 | 0.0 | 0.0 | 0.00 | 0.14 | 0.00 | 95 | 1012.5 |
| 20260510081011 | 53 | 350 | 0.0 | 0.0 | 0.00 | 0.14 | 0.00 | 95 | 1012.5 |
| 20260510080504 | 53 | 350 | 0.0 | 1.0 | 0.00 | 0.14 | 0.00 | 96 | 1012.5 |
| 20260510080014 | 53 | 350 | 0.0 | 2.0 | 0.00 | 0.14 | 0.00 | 96 | 1012.5 |
| 20260510075504 | 53 | 350 | 0.0 | 2.0 | 0.00 | 0.14 | 0.00 | 96 | 1012.5 |
| 20260510075005 | 53 | 292 | 0.0 | 2.0 | 0.00 | 0.14 | 0.00 | 96 | 1012.5 |
| 20260510074516 | 53 | 211 | 0.0 | 2.0 | 0.00 | 0.14 | 0.00 | 96 | 1012.5 |
| 20260510074010 | 53 | 211 | 0.0 | 2.0 | 0.00 | 0.14 | 0.00 | 95 | 1012.5 |
| 20260510073507 | 53 | 211 | 0.0 | 2.0 | 0.00 | 0.14 | 0.00 | 95 | 1012.4 |
| 20260510073019 | 53 | 211 | 0.0 | 2.0 | 0.00 | 0.14 | 0.00 | 95 | 1012.4 |
| 20260510072507 | 53 | 211 | 0.0 | 2.0 | 0.00 | 0.14 | 0.00 | 95 | 1012.4 |
| 20260510072011 | 53 | 211 | 0.0 | 2.0 | 0.00 | 0.14 | 0.00 | 95 | 1012.4 |
| 20260510071525 | 53 | 211 | 0.0 | 2.0 | 0.00 | 0.14 | 0.00 | 95 | 1012.4 |
| 20260510071011 | 54 | 211 | 0.0 | 2.0 | 0.00 | 0.14 | 0.00 | 95 | 1012.2 |
| 20260510070513 | 54 | 211 | 0.0 | 2.0 | 0.00 | 0.14 | 0.00 | 95 | 1012.3 |
| 20260510070031 | 54 | 211 | 0.0 | 2.0 | 0.00 | 0.14 | 0.00 | 95 | 1012.2 |
| 20260510065509 | 54 | 198 | 0.0 | 2.0 | 0.00 | 0.14 | 0.00 | 95 | 1012.1 |
| 20260510065007 | 54 | 291 | 0.0 | 2.0 | 0.00 | 0.14 | 0.00 | 95 | 1012.1 |
| 20260510064513 | 54 | 291 | 0.0 | 4.0 | 0.00 | 0.14 | 0.00 | 95 | 1012.1 |
| 20260510064004 | 54 | 72 | 0.0 | 4.0 | 0.00 | 0.14 | 0.00 | 95 | 1012.0 |
| 20260510063508 | 54 | 353 | 0.0 | 4.0 | 0.00 | 0.14 | 0.00 | 95 | 1012.0 |
| 20260510063019 | 54 | 249 | 0.0 | 2.0 | 0.00 | 0.14 | 0.00 | 95 | 1012.1 |
| 20260510062508 | 54 | 175 | 0.0 | 2.0 | 0.00 | 0.14 | 0.00 | 95 | 1012.2 |
| 20260510062009 | 54 | 167 | 0.0 | 2.0 | 0.00 | 0.14 | 0.00 | 95 | 1012.1 |
| 20260510061524 | 54 | 161 | 0.0 | 2.0 | 0.00 | 0.14 | 0.00 | 95 | 1012.1 |
| 20260510061009 | 54 | 187 | 0.0 | 2.0 | 0.00 | 0.14 | 0.00 | 95 | 1011.9 |
| 20260510060508 | 54 | 195 | 0.0 | 2.0 | 0.00 | 0.14 | 0.00 | 95 | 1012.0 |
| 20260510060025 | 53 | 195 | 0.0 | 2.0 | 0.00 | 0.14 | 0.00 | 95 | 1012.0 |
| 20260510055513 | 53 | 281 | 0.0 | 2.0 | 0.00 | 0.14 | 0.00 | 95 | 1012.0 |
| 20260510055012 | 53 | 179 | 0.0 | 2.0 | 0.00 | 0.14 | 0.00 | 95 | 1012.1 |
| 20260510054529 | 53 | 174 | 0.0 | 2.0 | 0.00 | 0.14 | 0.00 | 95 | 1012.0 |
| 20260510054009 | 53 | 312 | 0.0 | 2.0 | 0.00 | 0.14 | 0.00 | 95 | 1012.0 |
| 20260510053504 | 53 | 12 | 0.0 | 2.0 | 0.00 | 0.14 | 0.00 | 95 | 1012.0 |
| 20260510053039 | 54 | 238 | 0.0 | 2.0 | 0.00 | 0.14 | 0.00 | 95 | 1012.0 |
| 20260510052505 | 54 | 158 | 0.0 | 2.0 | 0.00 | 0.14 | 0.00 | 95 | 1012.1 |
| 20260510052006 | 54 | 191 | 0.0 | 2.0 | 0.00 | 0.14 | 0.00 | 95 | 1012.1 |
| 20260510051522 | 54 | 173 | 0.0 | 2.0 | 0.00 | 0.14 | 0.00 | 95 | 1012.1 |
| 20260510051011 | 54 | 160 | 0.0 | 2.0 | 0.00 | 0.14 | 0.00 | 95 | 1012.2 |
| 20260510050508 | 54 | 219 | 0.0 | 2.0 | 0.00 | 0.14 | 0.00 | 95 | 1012.3 |
| 20260510050023 | 54 | 184 | 1.0 | 4.0 | 0.00 | 0.14 | 0.00 | 95 | 1012.2 |
| 20260510045510 | 54 | 203 | 0.0 | 4.0 | 0.00 | 0.14 | 0.00 | 95 | 1012.2 |
| 20260510045010 | 54 | 275 | 0.0 | 2.0 | 0.00 | 0.14 | 0.00 | 95 | 1012.1 |
| 20260510044527 | 54 | 173 | 0.0 | 3.0 | 0.00 | 0.14 | 0.00 | 95 | 1012.2 |
| 20260510044004 | 54 | 149 | 0.0 | 3.0 | 0.00 | 0.14 | 0.00 | 95 | 1012.2 |
| 20260510043505 | 54 | 323 | 0.0 | 7.0 | 0.00 | 0.14 | 0.00 | 95 | 1012.2 |
| 20260510043021 | 54 | 204 | 1.0 | 7.0 | 0.00 | 0.14 | 0.00 | 95 | 1012.2 |
| 20260510042506 | 54 | 280 | 1.0 | 4.0 | 0.00 | 0.14 | 0.00 | 96 | 1012.2 |
| 20260510042006 | 53 | 165 | 1.0 | 5.0 | 0.00 | 0.14 | 0.00 | 96 | 1012.3 |
| 20260510041524 | 53 | 196 | 1.0 | 5.0 | 0.00 | 0.14 | 0.00 | 95 | 1012.3 |
| 20260510041006 | 53 | 141 | 1.0 | 3.0 | 0.00 | 0.14 | 0.00 | 95 | 1012.3 |
| 20260510040502 | 53 | 164 | 0.0 | 6.0 | 0.00 | 0.14 | 0.00 | 95 | 1012.4 |
| 20260510040004 | 53 | 302 | 1.0 | 6.0 | 0.00 | 0.14 | 0.00 | 95 | 1012.2 |
| 20260510035503 | 52 | 235 | 0.0 | 2.0 | 0.00 | 0.14 | 0.14 | 95 | 1012.1 |
| 20260510035004 | 52 | 250 | 0.0 | 4.0 | 0.00 | 0.14 | 0.14 | 95 | 1012.1 |
| 20260510034506 | 52 | 179 | 1.0 | 4.0 | 0.00 | 0.14 | 0.14 | 95 | 1012.1 |
| 20260510034008 | 52 | 245 | 1.0 | 3.0 | 0.00 | 0.14 | 0.14 | 95 | 1012.1 |
| 20260510033505 | 52 | 326 | 0.0 | 3.0 | 0.00 | 0.14 | 0.14 | 95 | 1012.2 |
| 20260510033011 | 52 | 28 | 1.0 | 4.0 | 0.00 | 0.14 | 0.14 | 95 | 1012.3 |
| 20260510032508 | 52 | 271 | 0.0 | 4.0 | 0.00 | 0.14 | 0.14 | 95 | 1012.2 |
| 20260510032008 | 52 | 226 | 1.0 | 4.0 | 0.00 | 0.14 | 0.14 | 95 | 1012.2 |
| 20260510031521 | 52 | 224 | 0.0 | 2.0 | 0.00 | 0.14 | 0.14 | 95 | 1012.3 |
| 20260510031009 | 52 | 293 | 1.0 | 5.0 | 0.00 | 0.14 | 0.14 | 95 | 1012.3 |
| 20260510030506 | 52 | 103 | 0.0 | 5.0 | 0.00 | 0.14 | 0.14 | 95 | 1012.4 |
| 20260510030022 | 52 | 144 | 1.0 | 5.0 | 0.00 | 0.14 | 0.14 | 95 | 1012.5 |
| 20260510025507 | 52 | 252 | 0.0 | 3.0 | 0.00 | 0.14 | 0.14 | 95 | 1012.4 |
| 20260510025004 | 51 | 236 | 0.0 | 3.0 | 0.00 | 0.14 | 0.14 | 95 | 1012.5 |
| 20260510024505 | 51 | 25 | 0.0 | 2.0 | 0.00 | 0.14 | 0.14 | 95 | 1012.5 |
| 20260510024006 | 51 | 321 | 0.0 | 2.0 | 0.01 | 0.14 | 0.14 | 95 | 1012.8 |
| 20260510023502 | 51 | 234 | 0.0 | 2.0 | 0.01 | 0.14 | 0.14 | 94 | 1012.9 |
| 20260510023008 | 51 | 233 | 0.0 | 3.0 | 0.01 | 0.14 | 0.14 | 94 | 1012.9 |
| 20260510022505 | 51 | 309 | 0.0 | 3.0 | 0.01 | 0.14 | 0.14 | 94 | 1013.0 |
| 20260510022007 | 51 | 328 | 0.0 | 2.0 | 0.01 | 0.14 | 0.14 | 94 | 1013.0 |
| 20260510021530 | 51 | 359 | 0.0 | 2.0 | 0.02 | 0.14 | 0.14 | 94 | 1013.0 |
| 20260510021007 | 51 | 110 | 0.0 | 2.0 | 0.02 | 0.14 | 0.14 | 94 | 1013.4 |
| 20260510020507 | 51 | 355 | 0.0 | 2.0 | 0.03 | 0.14 | 0.14 | 94 | 1013.4 |
| 20260510020017 | 51 | 1 | 0.0 | 2.0 | 0.04 | 0.14 | 0.14 | 94 | 1013.5 |
| 20260510015507 | 51 | 342 | 0.0 | 4.0 | 0.05 | 0.14 | 0.14 | 94 | 1013.3 |
| 20260510015009 | 51 | 305 | 1.0 | 4.0 | 0.06 | 0.14 | 0.14 | 94 | 1013.4 |
| 20260510014526 | 51 | 359 | 0.0 | 2.0 | 0.07 | 0.14 | 0.14 | 94 | 1013.4 |
| 20260510014007 | 51 | 49 | 0.0 | 2.0 | 0.07 | 0.13 | 0.13 | 94 | 1013.7 |
| 20260510013511 | 51 | 213 | 0.0 | 2.0 | 0.07 | 0.13 | 0.13 | 94 | 1013.8 |
| 20260510013004 | 51 | 315 | 0.0 | 2.0 | 0.08 | 0.13 | 0.13 | 94 | 1013.8 |
| 20260510012502 | 51 | 255 | 0.0 | 2.0 | 0.09 | 0.13 | 0.13 | 94 | 1014.0 |
| 20260510012006 | 51 | 290 | 0.0 | 2.0 | 0.09 | 0.13 | 0.13 | 94 | 1014.1 |
| 20260510011507 | 51 | 252 | 0.0 | 2.0 | 0.09 | 0.12 | 0.12 | 93 | 1014.3 |
| 20260510011005 | 52 | 252 | 0.0 | 2.0 | 0.09 | 0.12 | 0.12 | 93 | 1014.4 |
| 20260510010506 | 52 | 115 | 0.0 | 2.0 | 0.09 | 0.11 | 0.11 | 93 | 1014.3 |
| 20260510010017 | 52 | 75 | 0.0 | 2.0 | 0.08 | 0.10 | 0.10 | 93 | 1014.3 |
| 20260510005509 | 52 | 75 | 0.0 | 3.0 | 0.07 | 0.09 | 0.09 | 93 | 1014.4 |
| 20260510005008 | 52 | 75 | 0.0 | 3.0 | 0.07 | 0.08 | 0.08 | 92 | 1014.5 |
| 20260510004526 | 52 | 272 | 0.0 | 2.0 | 0.06 | 0.07 | 0.07 | 92 | 1014.6 |
| 20260510004006 | 52 | 191 | 0.0 | 2.0 | 0.05 | 0.06 | 0.06 | 92 | 1014.6 |
| 20260510003506 | 52 | 191 | 0.0 | 2.0 | 0.05 | 0.06 | 0.06 | 92 | 1014.6 |
| 20260510003024 | 53 | 145 | 0.0 | 2.0 | 0.04 | 0.05 | 0.05 | 91 | 1014.7 |
| 20260510002511 | 53 | 142 | 0.0 | 2.0 | 0.03 | 0.04 | 0.04 | 91 | 1014.7 |
| 20260510002010 | 53 | 173 | 0.0 | 2.0 | 0.03 | 0.04 | 0.04 | 91 | 1014.7 |
| 20260510001509 | 53 | 136 | 0.0 | 2.0 | 0.02 | 0.03 | 0.03 | 90 | 1014.7 |
| 20260510001004 | 53 | 167 | 1.0 | 2.0 | 0.02 | 0.03 | 0.03 | 90 | 1014.9 |
| 20260510000504 | 54 | 167 | 0.0 | 2.0 | 0.01 | 0.02 | 0.02 | 90 | 1014.7 |
| 20260510000013 | 54 | 174 | 0.0 | 2.0 | 0.01 | 0.02 | 0.02 | 89 | 1014.7 |
| 20260509235505 | 54 | 147 | 1.0 | 2.0 | 0.01 | 0.02 | 0.02 | 89 | 1014.5 |
| 20260509235009 | 54 | 170 | 0.0 | 2.0 | 0.00 | 0.01 | 0.01 | 89 | 1014.5 |
| 20260509234519 | 54 | 184 | 1.0 | 2.0 | 0.00 | 0.01 | 0.01 | 88 | 1014.5 |
| 20260509234011 | 54 | 175 | 0.0 | 2.0 | 0.00 | 0.01 | 0.01 | 88 | 1014.4 |
| 20260509233509 | 54 | 174 | 0.0 | 2.0 | 0.00 | 0.01 | 0.01 | 88 | 1014.3 |
| 20260509233022 | 54 | 187 | 0.0 | 3.0 | 0.00 | 0.01 | 0.01 | 88 | 1014.2 |
| 20260509232508 | 55 | 165 | 1.0 | 3.0 | 0.00 | 0.01 | 0.01 | 88 | 1014.3 |
| 20260509232011 | 55 | 214 | 1.0 | 3.0 | 0.00 | 0.01 | 0.01 | 88 | 1014.0 |
| 20260509231526 | 55 | 174 | 1.0 | 2.0 | 0.00 | 0.01 | 0.01 | 87 | 1014.2 |
| 20260509231014 | 55 | 193 | 1.0 | 3.0 | 0.00 | 0.01 | 0.01 | 86 | 1013.9 |
| 20260509230510 | 55 | 132 | 0.0 | 3.0 | 0.00 | 0.01 | 0.01 | 86 | 1014.0 |
| 20260509230009 | 56 | 159 | 1.0 | 3.0 | 0.00 | 0.01 | 0.01 | 84 | 1014.0 |
| 20260509225504 | 56 | 156 | 1.0 | 3.0 | 0.00 | 0.01 | 0.01 | 82 | 1014.0 |
| 20260509225006 | 56 | 153 | 1.0 | 4.0 | 0.00 | 0.01 | 0.01 | 80 | 1013.9 |
| 20260509224513 | 56 | 202 | 2.0 | 4.0 | 0.00 | 0.01 | 0.01 | 79 | 1013.9 |
| 20260509224007 | 56 | 164 | 1.0 | 3.0 | 0.00 | 0.01 | 0.01 | 78 | 1013.8 |
| 20260509223510 | 56 | 133 | 1.0 | 3.0 | 0.00 | 0.01 | 0.01 | 78 | 1013.7 |
| 20260509223020 | 57 | 167 | 1.0 | 3.0 | 0.00 | 0.01 | 0.01 | 78 | 1013.7 |
| 20260509222508 | 57 | 162 | 1.0 | 5.0 | 0.00 | 0.01 | 0.01 | 77 | 1013.5 |
| 20260509222014 | 57 | 177 | 2.0 | 5.0 | 0.00 | 0.01 | 0.01 | 76 | 1013.5 |
| 20260509221524 | 58 | 184 | 1.0 | 5.0 | 0.00 | 0.01 | 0.01 | 75 | 1013.5 |
| 20260509221007 | 58 | 173 | 1.0 | 5.0 | 0.00 | 0.01 | 0.01 | 75 | 1013.4 |
| 20260509220506 | 58 | 182 | 1.0 | 4.0 | 0.00 | 0.01 | 0.01 | 74 | 1013.4 |
| 20260509220026 | 58 | 155 | 2.0 | 4.0 | 0.00 | 0.01 | 0.01 | 73 | 1013.4 |
| 20260509215511 | 58 | 255 | 0.0 | 4.0 | 0.00 | 0.01 | 0.01 | 74 | 1013.5 |
| 20260509215010 | 58 | 174 | 1.0 | 4.0 | 0.00 | 0.01 | 0.01 | 73 | 1013.5 |
| 20260509214510 | 59 | 159 | 1.0 | 4.0 | 0.00 | 0.01 | 0.01 | 73 | 1013.3 |
| 20260509214006 | 59 | 167 | 1.0 | 4.0 | 0.00 | 0.01 | 0.01 | 73 | 1013.2 |
| 20260509213507 | 59 | 151 | 1.0 | 3.0 | 0.00 | 0.01 | 0.01 | 72 | 1013.2 |
| 20260509213027 | 59 | 159 | 1.0 | 2.0 | 0.00 | 0.01 | 0.01 | 72 | 1013.2 |
| 20260509212510 | 59 | 171 | 1.0 | 3.0 | 0.00 | 0.01 | 0.01 | 71 | 1013.2 |
| 20260509212010 | 59 | 150 | 1.0 | 4.0 | 0.00 | 0.01 | 0.01 | 71 | 1013.2 |
| 20260509211522 | 60 | 184 | 0.0 | 4.0 | 0.00 | 0.01 | 0.01 | 70 | 1013.1 |
| 20260509211010 | 60 | 171 | 2.0 | 4.0 | 0.00 | 0.01 | 0.01 | 69 | 1013.1 |
| 20260509210510 | 60 | 154 | 1.0 | 4.0 | 0.00 | 0.01 | 0.01 | 69 | 1013.1 |
| 20260509210027 | 60 | 156 | 1.0 | 3.0 | 0.00 | 0.01 | 0.01 | 71 | 1013.1 |
| 20260509205511 | 60 | 181 | 1.0 | 3.0 | 0.00 | 0.01 | 0.01 | 69 | 1013.1 |
| 20260509205010 | 60 | 310 | 1.0 | 4.0 | 0.00 | 0.01 | 0.01 | 70 | 1013.1 |
| 20260509204530 | 60 | 167 | 1.0 | 4.0 | 0.00 | 0.01 | 0.01 | 69 | 1013.1 |
| 20260509204009 | 60 | 148 | 1.0 | 4.0 | 0.00 | 0.01 | 0.01 | 69 | 1013.1 |
| 20260509203509 | 61 | 157 | 1.0 | 4.0 | 0.00 | 0.01 | 0.01 | 68 | 1013.3 |
| 20260509203016 | 61 | 166 | 1.0 | 3.0 | 0.00 | 0.01 | 0.01 | 69 | 1013.2 |
| 20260509202505 | 61 | 153 | 1.0 | 4.0 | 0.00 | 0.01 | 0.01 | 69 | 1013.1 |
| 20260509202008 | 61 | 164 | 1.0 | 4.0 | 0.00 | 0.01 | 0.01 | 69 | 1013.2 |
| 20260509201519 | 61 | 160 | 1.0 | 3.0 | 0.00 | 0.01 | 0.01 | 70 | 1013.3 |
| 20260509201010 | 61 | 139 | 1.0 | 3.0 | 0.00 | 0.01 | 0.01 | 69 | 1013.4 |
| 20260509200511 | 61 | 168 | 1.0 | 4.0 | 0.00 | 0.01 | 0.01 | 70 | 1013.5 |
| 20260509200024 | 61 | 168 | 2.0 | 4.0 | 0.00 | 0.01 | 0.01 | 68 | 1013.4 |
| 20260509195512 | 61 | 146 | 2.0 | 5.0 | 0.00 | 0.01 | 0.01 | 67 | 1013.4 |
| 20260509195009 | 62 | 176 | 1.0 | 7.0 | 0.00 | 0.01 | 0.01 | 69 | 1013.4 |
| 20260509194530 | 62 | 172 | 2.0 | 6.0 | 0.00 | 0.01 | 0.01 | 68 | 1013.5 |
| 20260509194009 | 62 | 139 | 1.0 | 6.0 | 0.00 | 0.01 | 0.01 | 68 | 1013.5 |
| 20260509193505 | 62 | 176 | 1.0 | 4.0 | 0.00 | 0.01 | 0.01 | 68 | 1013.4 |
| 20260509193024 | 62 | 233 | 2.0 | 4.0 | 0.00 | 0.01 | 0.01 | 68 | 1013.6 |
| 20260509192507 | 62 | 167 | 1.0 | 4.0 | 0.00 | 0.01 | 0.01 | 68 | 1013.6 |
| 20260509192007 | 62 | 172 | 1.0 | 4.0 | 0.00 | 0.01 | 0.01 | 68 | 1013.6 |
| 20260509191525 | 62 | 162 | 1.0 | 4.0 | 0.00 | 0.01 | 0.01 | 69 | 1013.5 |
| 20260509191009 | 62 | 142 | 1.0 | 3.0 | 0.00 | 0.01 | 0.01 | 69 | 1013.5 |
| 20260509190512 | 62 | 116 | 1.0 | 3.0 | 0.00 | 0.01 | 0.01 | 71 | 1013.4 |
| 20260509190004 | 62 | 141 | 1.0 | 3.0 | 0.00 | 0.01 | 0.01 | 70 | 1013.4 |
| 20260509185504 | 62 | 165 | 1.0 | 3.0 | 0.00 | 0.01 | 0.01 | 70 | 1013.5 |
| 20260509185004 | 61 | 155 | 1.0 | 3.0 | 0.00 | 0.01 | 0.01 | 70 | 1013.5 |
| 20260509184517 | 62 | 149 | 2.0 | 3.0 | 0.00 | 0.01 | 0.01 | 70 | 1013.5 |
| 20260509184010 | 62 | 153 | 1.0 | 3.0 | 0.00 | 0.01 | 0.01 | 70 | 1013.6 |
| 20260509183503 | 62 | 153 | 1.0 | 3.0 | 0.00 | 0.01 | 0.01 | 69 | 1013.7 |
| 20260509183008 | 62 | 192 | 1.0 | 3.0 | 0.00 | 0.01 | 0.01 | 69 | 1013.7 |
| 20260509182507 | 63 | 121 | 1.0 | 4.0 | 0.00 | 0.01 | 0.01 | 68 | 1013.8 |
| 20260509182008 | 63 | 187 | 1.0 | 4.0 | 0.00 | 0.01 | 0.01 | 68 | 1013.9 |
| 20260509181514 | 63 | 187 | 1.0 | 4.0 | 0.00 | 0.01 | 0.01 | 69 | 1014.0 |
| 20260509181011 | 63 | 179 | 1.0 | 4.0 | 0.00 | 0.01 | 0.01 | 67 | 1014.2 |
| 20260509180508 | 62 | 199 | 1.0 | 4.0 | 0.00 | 0.01 | 0.01 | 68 | 1014.2 |
| 20260509180020 | 62 | 172 | 1.0 | 4.0 | 0.00 | 0.01 | 0.01 | 67 | 1014.2 |
| 20260509175513 | 62 | 181 | 2.0 | 4.0 | 0.00 | 0.01 | 0.01 | 68 | 1014.2 |
| 20260509175008 | 61 | 309 | 1.0 | 5.0 | 0.00 | 0.01 | 0.01 | 71 | 1014.3 |
| 20260509174503 | 61 | 176 | 1.0 | 5.0 | 0.00 | 0.01 | 0.01 | 69 | 1014.3 |
| 20260509174004 | 60 | 166 | 0.0 | 4.0 | 0.00 | 0.01 | 0.01 | 71 | 1014.4 |
| 20260509173503 | 60 | 153 | 0.0 | 4.0 | 0.00 | 0.01 | 0.01 | 72 | 1014.4 |
| 20260509173008 | 60 | 179 | 2.0 | 4.0 | 0.00 | 0.01 | 0.01 | 70 | 1014.6 |
| 20260509172504 | 60 | 169 | 2.0 | 5.0 | 0.00 | 0.01 | 0.01 | 69 | 1014.6 |
| 20260509172006 | 60 | 153 | 2.0 | 5.0 | 0.00 | 0.01 | 0.01 | 69 | 1014.6 |
| 20260509171513 | 60 | 143 | 2.0 | 5.0 | 0.00 | 0.01 | 0.01 | 69 | 1014.5 |
| 20260509171006 | 61 | 167 | 1.0 | 5.0 | 0.00 | 0.01 | 0.01 | 68 | 1014.5 |
| 20260509170507 | 61 | 164 | 1.0 | 3.0 | 0.00 | 0.01 | 0.01 | 69 | 1014.6 |
| 20260509170023 | 61 | 106 | 0.0 | 2.0 | 0.00 | 0.01 | 0.01 | 66 | 1014.5 |
| 20260509165508 | 61 | 161 | 1.0 | 2.0 | 0.00 | 0.01 | 0.01 | 66 | 1014.5 |
| 20260509165010 | 61 | 169 | 1.0 | 2.0 | 0.00 | 0.01 | 0.01 | 66 | 1014.4 |
| 20260509164521 | 62 | 174 | 1.0 | 3.0 | 0.00 | 0.01 | 0.01 | 65 | 1014.3 |
| 20260509164011 | 62 | 158 | 0.0 | 3.0 | 0.00 | 0.01 | 0.01 | 66 | 1014.4 |
| 20260509163507 | 62 | 172 | 0.0 | 2.0 | 0.00 | 0.01 | 0.01 | 67 | 1014.4 |
| 20260509163003 | 61 | 84 | 1.0 | 3.0 | 0.00 | 0.01 | 0.01 | 67 | 1014.4 |
| 20260509162503 | 61 | 188 | 1.0 | 3.0 | 0.00 | 0.01 | 0.01 | 67 | 1014.3 |
| 20260509162002 | 61 | 153 | 1.0 | 2.0 | 0.00 | 0.01 | 0.01 | 66 | 1014.5 |
| 20260509161511 | 61 | 169 | 1.0 | 3.0 | 0.00 | 0.01 | 0.01 | 66 | 1014.5 |
| 20260509161003 | 62 | 167 | 1.0 | 3.0 | 0.00 | 0.01 | 0.01 | 64 | 1014.6 |
| 20260509160503 | 63 | 169 | 1.0 | 3.0 | 0.00 | 0.01 | 0.01 | 62 | 1014.7 |
| 20260509160014 | 63 | 116 | 0.0 | 3.0 | 0.00 | 0.01 | 0.01 | 63 | 1014.7 |
| 20260509155506 | 63 | 79 | 1.0 | 3.0 | 0.00 | 0.01 | 0.01 | 62 | 1014.6 |
| 20260509155007 | 63 | 108 | 1.0 | 2.0 | 0.00 | 0.01 | 0.01 | 62 | 1014.7 |
| 20260509154518 | 63 | 199 | 1.0 | 2.0 | 0.00 | 0.01 | 0.01 | 62 | 1014.6 |
| 20260509154012 | 63 | 174 | 0.0 | 3.0 | 0.00 | 0.01 | 0.01 | 64 | 1014.7 |
| 20260509153507 | 63 | 192 | 1.0 | 3.0 | 0.00 | 0.01 | 0.01 | 63 | 1014.9 |
| 20260509153031 | 63 | 56 | 1.0 | 3.0 | 0.00 | 0.01 | 0.01 | 64 | 1015.0 |